Lid_Strength_Index
2 1 1 1 1 0 0 -0 0 -1 -0 0 0 0 0 -0 -1 -1 -1 -1 -1 -1 -2 -1 -1 -1 -1 -1 -1 -0 1 1 -1 1 1 1 0 0 -0 -1 -1 -1 -1
3 2 1 1 1 1 0 -0 -0 -0 -0 -0 -0 -0 -0 -1 -1 -1 -1 -1 -1 -1 -1 -1 -1 -1 -0 -1 -0 -0 0 1 -0 1 1 4 2 1 0 -0 -0 -1 -1
3 3 2 1 1 1 1 0 -0 -0 -0 -1 -0 -0 -1 -0 0 -0 -0 -0 -1 -2 -2 -1 -1 -1 -1 -0 -1 -0 0 1 0 -0 1 3 4 2 0 0 -0 -0 -1
3 2 2 2 1 1 0 0 -0 -0 -0 -1 -0 -0 1 1 0 -0 -0 -1 -2 -1 -1 -1 -1 -1 -1 -1 -0 -1 -1 -0 1 0 -0 -0 1 3 4 1 0 -0 -0
3 3 2 1 1 1 0 0 -0 -0 -1 -0 -1 0 0 0 -0 -0 -0 -1 -1 -1 -1 -1 -2 -1 -1 -1 -1 -1 -0 -0 0 1 0 0 1 0 2 4 2 0 -0
3 2 2 1 1 1 0 0 0 0 -0 -0 -0 -0 -0 -0 1 0 1 0 -0 -0 -1 -1 -1 -1 -1 -1 -1 -1 -1 -0 -0 0 0 1 1 1 2 2 2 2 1
3 2 2 2 1 1 1 1 0 1 0 -0 0 -0 -0 -0 -0 0 0 0 0 0 -0 -1 -1 -1 -1 -1 -1 -1 -1 -0 0 0 1 0 0 0 1 2 2 2 1
3 3 2 2 1 1 1 1 1 1 0 0 0 -0 -0 0 0 -0 -0 0 0 -0 -1 -1 -1 -1 -1 -1 -1 -0 -0 -1 -0 -0 -0 0 0 -0 0 1 2 3 2
3 3 2 2 2 1 1 1 1 1 0 0 -0 0 -0 -0 -0 -1 -1 -0 -1 -1 -1 -1 -1 -1 -1 -1 -1 -0 -0 -1 -0 -0 -0 0 -0 -0 -0 -0 0 2 4
3 3 2 2 1 1 1 1 0 1 0 0 0 0 -0 -0 -0 -0 -0 -1 -1 -1 -1 -1 -1 -1 -1 -1 -1 -1 -1 -0 -0 -0 -0 -0 -0 -0 -0 -0 0 0 2
3 3 2 1 1 1 1 1 1 1 1 0 0 -0 0 -0 -0 -0 -0 -0 -1 -1 -1 -1 -1 -1 -1 -1 -1 -1 -1 -0 -0 -0 -0 -0 -1 0 0 -0 0 1 1
3 2 2 2 1 1 1 1 1 1 1 0 0 0 0 -0 0 -0 -0 -1 -1 -1 -1 -1 -1 -1 -1 -1 -1 -0 -0 -0 0 0 -0 0 0 -0 -0 0 -0 0 -0
3 2 2 2 2 2 1 1 1 1 1 1 0 0 0 0 0 -0 -0 -1 -1 -1 -1 -1 -1 -1 -1 -0 -1 -1 -1 0 -0 -0 0 0 -0 0 0 -0 0 0 0
3 3 2 2 2 2 2 2 1 1 0 0 0 1 0 0 0 -0 -0 -0 -1 -1 -1 -1 -1 -1 -1 -1 -1 -0 -0 -0 -1 -0 -0 -0 0 0 0 0 0 0 1
3 3 3 2 2 2 2 2 1 1 0 1 1 1 0 -0 -0 -0 -0 -1 -1 -0 -1 -0 -0 -1 -1 -0 -1 -1 -1 -0 -0 -1 -0 -0 -0 0 -0 0 0 0 1
4 3 3 2 3 2 2 2 1 1 0 1 1 0 0 0 0 0 -0 -0 -0 -0 -0 -0 -1 -0 -1 1 2 0 -1 -0 -0 0 -0 -0 -0 0 1 1 1 0 1
3 3 3 2 2 2 2 2 2 1 1 1 1 1 0 0 0 0 0 0 0 -0 0 0 -0 -0 -0 4 3 2 -1 -0 -0 0 0 0 -0 -0 -0 1 2 1 2
3 3 2 2 2 1 1 1 1 1 1 1 1 1 1 1 1 1 1 0 0 0 0 0 -0 -0 0 4 2 1 -1 -0 0 -0 0 0 0 -0 -0 -0 0 0 -0
2 2 2 2 1 1 1 1 1 1 1 1 1 1 1 1 1 1 1 0 0 0 0 -0 -0 0 0 4 2 1 -1 0 0 -0 -0 -0 0 4 4 0 1 1 0
2 2 2 2 1 1 1 2 2 2 2 1 1 1 1 1 1 1 1 0 0 0 0 0 -0 2 -0 6 5 2 -0 0 0 -1 -0 2 0 3 5 0 1 2 1
2 2 1 2 1 1 1 2 1 2 1 1 1 1 0 1 0 0 0 0 0 0 0 0 -0 -0 -0 2 6 5 -0 0 0 0 0 -0 2 4 5 5 0 1 3
2 2 2 2 1 1 1 2 2 1 0 0 1 1 1 1 1 1 1 0 1 1 1 1 1 0 1 6 7 6 5 3 0 0 -0 -0 3 4 3 1 3 4 3
2 2 2 2 1 1 1 2 2 1 1 1 1 1 0 0 0 1 1 1 1 1 1 2 1 1 2 3 6 6 5 4 -0 -0 2 3 3 3 2 2 2 1 0
2 2 2 2 2 1 1 1 1 1 1 2 2 1 1 1 1 1 1 1 1 1 1 1 2 1 1 1 -0 -0 0 2 -0 1 -1 1 1 2 1 -0 0 0 0
2 2 2 2 2 1 1 1 1 1 2 2 2 1 1 1 1 3 4 1 3 5 1 1 1 1 1 4 7 6 1 -0 2 1 -1 0 0 1 1 1 1 1 1
2 2 2 2 2 2 1 1 1 1 2 2 2 2 1 1 1 1 5 13 12 13 12 11 5 6 10 10 11 10 9 8 7 1 1 1 2 2 2 3 2 2 2